Location: Unspecified
(64.9000°N, 0.0000°E)
Time: 00:35:35
(UTC+00:00)

Vanguard 2 Rocket - All Passes

Search period start: 18 June 2019 00:00
Search period end: 28 June 2019 00:00
Orbit: 554 x 3326 km, 32.9° (Epoch: 17 June)

Date Brightness Start Highest point End Pass type
(mag) Time Alt. Az. Time Alt. Az. Time Alt. Az.
18 Jun - 01:31:13 10° SSW 01:39:49 17° S 01:49:50 10° SSE daylight
18 Jun - 03:45:38 10° SW 03:52:05 13° SSW 03:58:58 10° S daylight
19 Jun - 00:32:30 10° SSW 00:40:02 16° S 00:48:56 10° SE daylight
19 Jun - 02:44:50 10° SW 02:52:14 14° SSW 03:00:28 10° S daylight
19 Jun - 23:34:36 10° S 23:40:27 14° SSE 23:47:16 10° SE daylight
20 Jun - 01:45:04 10° SW 01:52:23 15° S 02:00:51 10° SSE daylight
20 Jun - 22:38:25 10° SSE 22:41:07 11° SSE 22:44:00 10° SE daylight
21 Jun - 00:46:05 10° SSW 00:52:39 15° S 01:00:24 10° SSE daylight
21 Jun - 03:00:57 10° SW 03:04:44 11° SSW 03:08:46 10° S daylight
21 Jun - 23:47:53 10° SSW 23:53:06 13° S 23:59:10 10° SSE daylight
22 Jun - 02:00:04 10° SW 02:05:01 12° SSW 02:10:32 10° S daylight
22 Jun - 22:51:08 10° S 22:53:45 11° SSE 22:56:36 10° SSE daylight
23 Jun - 01:00:34 10° SSW 01:05:23 12° S 01:10:49 10° SSE daylight
24 Jun - 00:02:08 10° SSW 00:05:52 12° S 00:10:04 10° SSE daylight
